Weather History for CWMT - October, 2013

Change the Weather History Date:

Tuesday, October 1, 2013

  Actual Average Record
Temperature  
Mean Temperature 38 °F -  
Max Temperature 41 °F - - ()
Min Temperature 34 °F - - ()
Degree Days  
Heating Degree Days 28    
Moisture  
Dew Point 32 °F    
Average Humidity 81    
Maximum Humidity 99    
Minimum Humidity 59    
Precipitation  
Precipitation 0.00 in - - ()
Sea Level Pressure  
Sea Level Pressure 29.98 in    
Wind  
Wind Speed 4 mph ()    
Max Wind Speed 7 mph    
Max Gust Speed -    
T = Trace of Precipitation, MM = Missing Value Source: Averaged Metar Reports

Daily Weather History Graph

Daily Weather History Graph

Search for Another Location

Airport or City:

Trip Planner

Search our weather history database for the weather conditions in past years. The results will help you decide how hot, cold, wet, or windy it might be!

Date:

Astronomy

Oct. 01, 2013 Rise Set
Actual Time 7:58 AM MDT 7:17 PM MDT
Civil Twilight 7:12 AM MDT 8:03 PM MDT
Nautical Twilight 6:17 AM MDT 8:57 PM MDT
Astronomical Twilight 5:19 AM MDT 9:54 PM MDT
Moon 3:43 AM MDT (10/1) 6:05 PM MDT (10/1)
Length of Visible Light 12h 51m
Length of Day
11h 19m
Waning Crescent, 11% of the Moon is Illuminated
Oct 1
Waning Crescent
Oct 4
New
Oct 11
First Quarter
Oct 18
Full
Oct 26
Last Quarter

Hourly Weather History & Observations

Time (MDT) Temp. Windchill Dew Point Humidity Pressure Visibility Wind Dir Wind Speed Gust Speed Precip Events Conditions
12:00 AM 36.1 °F 32.3 °F 30.2 °F 79% - - NE 4.6 mph - N/A   Unknown
1:00 AM 35.8 °F 31.9 °F 29.1 °F 77% - - NNE 4.6 mph - N/A   Unknown
2:00 AM 36.0 °F 32.1 °F 29.5 °F 77% 29.86 in - NE 4.6 mph - N/A   Unknown
3:00 AM 35.6 °F 32.8 °F 29.3 °F 78% 29.87 in - NE 3.5 mph - N/A   Unknown
4:00 AM 35.4 °F 30.5 °F 30.4 °F 82% 29.89 in - NNE 5.8 mph - N/A   Unknown
5:00 AM 34.9 °F 29.9 °F 30.4 °F 84% 29.90 in - NNE 5.8 mph - N/A   Unknown
6:00 AM 34 °F - 30 °F 80% 29.91 in - NE 4.6 mph - -  
6:00 AM 34.3 °F 30.2 °F 30.2 °F 85% 29.91 in - NE 4.6 mph - N/A   Unknown
7:00 AM 34.0 °F 29.8 °F 30.6 °F 87% 29.92 in - NE 4.6 mph - N/A   Unknown
8:00 AM 34.0 °F 29.8 °F 31.5 °F 90% 29.94 in - NNE 4.6 mph - N/A   Unknown
9:00 AM 34.3 °F 31.4 °F 33.6 °F 97% 29.95 in - North 3.5 mph - N/A   Unknown
10:00 AM 34.7 °F 31.8 °F 34.3 °F 99% 29.96 in - NNE 3.5 mph - N/A   Unknown
11:00 AM 36.3 °F 32.5 °F 35.8 °F 98% 29.98 in - NNE 4.6 mph - N/A   Unknown
12:00 PM 38 °F - 35 °F 87% 29.98 in - ENE 5.8 mph - -  
12:00 PM 37.8 °F 33.3 °F 35.4 °F 91% 29.98 in - ENE 5.8 mph - N/A   Unknown
3:00 PM 40.1 °F 36.9 °F 35.8 °F 85% 30.01 in - ENE 4.6 mph - N/A   Unknown
4:00 PM 41.2 °F 39.2 °F 34.2 °F 76% 30.02 in - NE 3.5 mph - N/A   Unknown
5:00 PM 41.9 °F 39.0 °F 31.5 °F 66% 30.03 in - NE 4.6 mph - N/A   Unknown
6:00 PM 41 °F - 32 °F 59% 30.04 in - ENE 5.8 mph - -  
6:00 PM 41.2 °F 37.3 °F 31.6 °F 69% 30.04 in - ENE 5.8 mph - N/A   Unknown
7:00 PM 39.6 °F 34.7 °F 30.4 °F 70% 30.06 in - ENE 6.9 mph - N/A   Unknown
8:00 PM 37.9 °F 34.4 °F 29.7 °F 72% 30.07 in - ENE 4.6 mph - N/A   Unknown
9:00 PM 37.4 °F 34.9 °F 29.8 °F 74% 30.08 in - ENE 3.5 mph - N/A   Unknown
10:00 PM 36.9 °F 34.3 °F 30.0 °F 76% 30.09 in - East 3.5 mph - N/A   Unknown
11:00 PM 36.3 °F 33.7 °F 30.0 °F 78% 30.10 in - ENE 3.5 mph - N/A   Unknown